Content
SEND FEEDBACK

Daily
Averages
Monthly
Summary
United States of America

STILLWATER, OKLAHOMA


Home > North America > United States > Oklahoma
Elevation: 875 feet     Latitude: 36 07N     Longitude: 097 06W

WEATHER
 
SELECT A DAY
Number of Records: 174,141;   Date Range: 3/22/95 - 9/16/14
 
SHARE

PRINT THIS DATA

[ ← Previous Day ]
WEATHER ALMANAC - JANUARY 31, 2013
[ Next Day → ]
[ °C ]   °F
Weather ElementAverageHighLow
Temperature33.7 °F52 °F (12:53 pm)21.9 °F (11:53 pm)
Dewpoint19.8 °F28 °F (2:53 pm)9 °F (9:53 pm)
Humidity59 %84 % (1:53 am)26 % (10:53 am)
Barometer30.22 in30.46 in (8:53 pm)30.02 in (3:53 am)
Wind Speed9.6 mph24.2 mph (2:53 pm)
Wind Gust31.1 mph (2:53 pm)
Weather ElementAverage
Visibility10 mi
Wind DirectionE (93.3 °)

Weather ElementTotal
Precipitation---
Heating Degree Days28.1 (Base 65)
Averaged from 21 records on January 31, 2013
WEATHER CONDITIONS BREAKOUT
WIND DIRECTION BREAKOUT
WEATHER BY HOUR - JANUARY 31, 2013
[ °C ]   °F
Local TimeTemperatureDewpointHumidityBarometerVisibilityWind DirectionWind SpeedGust SpeedPrecipitationEventsConditions
1:53 AM24.1 °F19.9 °F84 %30.04 in10.0 miCalmClear
2:53 AM27.0 °F19.9 °F75 %30.03 in10.0 miCalmClear
3:53 AM28.0 °F21.0 °F75 %30.02 in10.0 miWest (260°)3.5 mphClear
5:53 AM28.9 °F21.9 °F75 %30.03 in10.0 miWSW (250°)3.5 mphClear
6:53 AM28.9 °F21.9 °F75 %30.05 in10.0 miWest (270°)3.5 mphClear
7:53 AM28.0 °F21.9 °F78 %30.07 in10.0 miWSW (240°)3.5 mphClear
8:53 AM36.0 °F25.0 °F64 %30.09 in10.0 miCalmClear
9:53 AM43.0 °F24.1 °F47 %30.12 in10.0 miNW (320°)8.1 mphClear
10:53 AM51.1 °F17.1 °F26 %30.12 in10.0 miWNW (300°)6.9 mphClear
11:53 AM48.0 °F27.0 °F44 %30.14 in10.0 miNorth (10°)17.3 mphClear
12:53 PM52.0 °F27.0 °F38 %30.14 in10.0 miNNE (20°)16.1 mph23.0 mphClear
2:53 PM46.9 °F28.0 °F48 %30.21 in10.0 miNNE (20°)24.2 mph31.1 mphClear
3:53 PM42.1 °F26.1 °F53 %30.24 in10.0 miNNE (30°)18.4 mph25.3 mphClear
4:53 PM36.0 °F24.1 °F62 %30.32 in10.0 miNNE (30°)15.0 mph23.0 mphClear
5:53 PM30.9 °F18.0 °F59 %30.35 in10.0 miNNE (20°)19.6 mphClear
6:53 PM28.9 °F15.1 °F56 %30.42 in10.0 miNNE (30°)9.2 mphClear
7:53 PM28.0 °F14.0 °F56 %30.44 in10.0 miNNE (20°)9.2 mphClear
8:53 PM27.0 °F14.0 °F58 %30.46 in10.0 miNNE (20°)11.5 mphClear
9:53 PM26.1 °F9.0 °F49 %30.46 in10.0 miNE (40°)12.7 mphPartly Cloudy
10:53 PM24.1 °F10.9 °F57 %30.45 in10.0 miNE (40°)6.9 mphPartly Cloudy
11:53 PM21.9 °F10.0 °F60 %30.44 in10.0 miNE (40°)11.5 mphClear
Hourly data recorded from KSWO, located miles away from Stillwater, Oklahoma







STORIES FROM OUR PARTNERS